Probability
0 0 0 0 0 0 0 0 0 0 0 0 0 0 0 0 0 0 0 0 0 0 0 0 0 0 0 0 0 0 0 0 0 0 0 0 0 0 0 0 0 0 0
0 0 0 0 0 0 0 0 0 0 0 0 0 0 0 0 0 0 0 0 0 0 0 0 0 0 0 0 0 0 0 0 0 0 0 0 0 0 0 0 0 0 0
0 0 0 0 0 0 0 0 0 0 0 0 0 0 0 0 0 0 0 0 0 0 0 0 0 0 0 0 0 0 0 0 0 0 0 0 0 0 0 0 0 0 0
0 0 0 0 0 0 0 0 0 0 0 0 0 0 0 0 0 0 0 0 0 0 0 0 0 0 0 0 0 0 0 0 0 0 0 0 0 0 0 0 0 0 0
0 0 0 0 0 0 0 0 0 0 0 0 0 0 0 0 0 0 0 0 0 0 0 0 0 0 0 0 0 0 0 0 0 0 0 0 0 0 0 0 0 0 0
0 0 0 0 0 0 0 0 0 0 0 0 0 0 0 0 0 0 0 0 0 0 0 0 0 0 0 0 0 0 0 0 0 0 0 0 0 0 0 0 0 0 0
0 0 0 0 0 0 0 0 0 0 0 0 0 0 0 0 0 0 0 0 0 0 0 0 0 0 0 0 0 0 0 0 0 0 0 0 0 0 0 0 0 0 0
0 0 0 0 0 0 0 0 0 0 0 0 0 0 0 0 0 0 0 0 0 0 0 0 0 0 0 0 0 0 0 0 0 0 0 0 0 0 0 0 0 0 0
0 0 0 0 0 0 0 0 0 0 0 0 0 0 0 0 0 0 0 0 0 0 0 0 0 0 0 0 0 0 0 0 0 0 0 0 0 0 0 0 0 0 0
0 0 0 0 0 0 0 0 0 0 0 0 0 0 0 0 0 0 0 0 0 0 0 0 0 0 0 0 0 0 0 0 0 0 0 0 0 0 0 0 0 0 0
0 0 0 0 0 0 0 0 0 0 0 0 0 0 0 0 0 0 0 0 0 0 0 0 0 0 0 0 0 0 0 0 0 0 0 0 0 0 0 0 0 0 0
0 0 0 0 0 0 0 0 0 0 0 0 0 0 0 0 0 0 0 0 0 0 0 0 0 0 0 0 0 0 0 0 0 0 0 0 0 0 0 0 0 0 0
0 0 0 0 0 0 0 0 0 0 0 0 0 0 0 0 0 0 0 0 0 0 0 0 0 0 0 0 0 0 0 0 0 0 0 0 0 0 0 0 0 0 0
0 0 0 0 0 0 0 0 0 0 0 0 0 0 0 0 0 0 0 0 0 0 0 0 0 0 0 0 0 0 0 0 0 0 0 0 0 0 0 0 0 0 0
0 0 0 0 0 0 0 0 0 0 0 0 0 0 0 0 0 0 0 0 0 0 0 0 0 0 0 0 0 0 0 0 0 0 0 0 0 0 0 0 0 0 0
0 0 0 0 0 0 0 0 0 0 0 0 0 0 0 0 0 0 0 0 0 0 0 0 0 0 0 0 0 0 0 0 0 0 0 0 0 0 0 0 0 0 0
0 0 0 0 0 0 0 0 0 0 0 0 0 0 0 0 0 0 0 0 0 0 0 0 0 0 0 0 0 0 0 0 0 0 0 0 0 0 0 0 0 0 0
0 0 0 0 0 0 0 0 0 0 0 0 0 0 0 0 0 0 0 0 0 0 0 0 0 0 0 0 0 0 0 0 0 0 0 0 0 0 0 0 0 0 0
0 0 0 0 0 0 0 0 0 0 0 0 0 0 0 0 0 0 0 0 0 0 0 0 0 0 0 0 0 0 0 0 0 0 0 0 0 0 0 0 0 0 0
0 0 0 0 0 0 0 0 0 0 0 0 0 0 0 0 0 0 0 0 0 0 0 0 0 0 0 0 0 0 0 0 0 0 0 0 0 0 0 0 0 0 0
0 0 0 0 0 0 0 0 0 0 0 0 0 0 0 0 0 0 0 0 0 0 0 0 0 0 0 0 0 0 0 0 0 0 0 0 0 0 0 0 0 0 0
0 0 0 0 0 0 0 0 0 0 0 0 0 0 0 0 0 0 0 0 0 0 0 0 0 0 0 0 0 0 0 0 0 0 0 0 0 0 0 0 0 0 0
0 0 0 0 0 0 0 0 0 0 0 0 0 0 0 0 0 0 0 0 0 0 0 0 0 0 0 0 0 0 0 0 0 0 0 0 0 0 0 0 0 0 0
0 0 0 0 0 0 0 0 0 0 0 0 0 0 0 0 0 0 0 0 0 0 0 0 0 0 0 0 0 0 0 0 0 0 0 0 0 0 0 0 0 0 0
0 0 0 0 0 0 0 0 0 0 0 0 0 0 0 0 0 0 0 0 0 0 0 0 0 0 0 0 0 0 0 0 0 0 0 0 0 0 0 0 0 0 0
0 0 0 0 0 0 0 0 0 0 0 0 0 0 0 0 0 0 0 0 0 0 0 0 0 0 0 0 0 0 0 0 0 0 0 0 0 0 0 0 0 0 0
Wind_Speed
4 3 2 2 3 2 2 2 2 3 3 3 3 4 5 5 4 4 4 11 13 14 16 17 17 16 16 16 16 15 15 15 15 15 15 15 15 16 16 16 16 16 15
4 4 3 3 3 3 3 3 3 3 3 3 4 4 5 5 5 5 4 6 12 14 15 16 16 16 16 16 16 16 15 15 16 16 16 16 16 16 17 17 17 17 17
5 4 3 3 3 3 3 2 3 2 2 3 4 4 4 5 5 5 5 4 5 10 13 14 14 14 15 15 15 15 15 15 16 16 16 16 16 17 17 18 18 18 18
5 4 3 3 3 2 2 2 2 2 2 2 3 3 3 4 5 5 4 4 3 3 7 11 12 12 13 14 14 14 15 15 15 16 16 16 16 17 17 18 18 19 19
5 4 3 2 2 2 1 1 1 1 2 2 3 4 4 4 4 4 4 4 3 3 2 6 10 11 13 14 15 15 15 16 16 16 17 17 17 17 18 18 19 19 20
4 4 2 2 2 2 1 1 1 1 1 2 3 4 4 4 3 3 4 3 2 3 2 3 3 6 13 15 16 17 17 17 17 17 18 18 18 18 18 19 19 19 20
4 3 2 2 2 2 1 1 1 0 1 1 2 4 4 3 3 2 2 2 3 3 3 3 3 3 5 13 16 18 18 18 19 19 19 19 19 19 19 20 20 20 20
3 3 3 2 2 2 2 1 1 1 1 1 1 2 5 6 4 3 3 3 3 3 4 4 5 5 4 4 10 18 18 19 19 19 20 20 20 21 21 21 21 21 22
3 3 3 3 3 2 2 1 2 2 0 1 0 1 0 3 4 4 4 3 3 3 4 5 6 6 6 5 6 11 17 19 20 20 21 21 21 21 22 22 22 23 23
4 4 4 4 3 2 2 1 2 2 2 1 1 1 2 2 3 5 4 4 4 4 5 5 6 7 7 5 8 15 19 19 20 21 22 22 22 23 23 23 23 23 24
3 4 4 4 3 2 2 2 1 2 2 2 2 1 1 1 4 4 7 5 4 4 5 6 6 6 6 6 5 11 19 20 21 22 23 23 24 24 24 24 24 24 24
2 3 3 3 3 2 2 1 1 2 2 2 2 2 3 3 3 4 6 6 6 4 5 5 5 5 5 5 8 18 20 22 23 23 24 24 24 25 25 25 25 25 25
2 2 2 2 2 1 1 1 1 1 2 3 3 3 3 4 3 3 5 6 6 5 4 3 4 4 6 4 6 19 20 23 23 24 24 24 25 25 25 25 25 25 25
3 3 3 2 2 1 1 1 1 2 2 3 4 4 3 4 4 4 4 4 7 5 3 5 3 5 4 4 10 21 12 22 24 24 25 25 25 25 25 25 25 25 25
3 3 3 2 2 1 1 1 1 2 2 3 4 4 4 4 4 4 4 4 4 7 7 4 3 3 4 6 13 10 8 18 24 25 25 25 25 25 25 25 25 25 25
3 3 3 2 2 1 1 1 2 2 3 3 3 4 5 4 4 4 4 4 5 6 8 4 5 6 8 10 16 11 10 24 24 24 25 25 24 24 24 25 25 25 25
4 3 3 2 2 2 2 2 3 3 4 4 4 5 6 6 4 4 4 5 5 6 11 9 5 6 8 10 11 10 10 9 11 22 24 25 24 24 24 24 24 25 25
4 3 3 2 2 2 2 3 4 4 4 5 6 5 7 5 6 5 5 6 6 7 8 13 8 6 8 9 10 11 11 10 8 19 24 24 24 24 24 24 23 24 24
3 3 3 3 3 3 3 4 4 5 5 6 6 6 7 6 7 6 6 6 7 8 7 10 11 7 6 7 8 9 11 9 10 15 20 21 22 23 23 24 24 23 23
4 3 3 3 3 3 4 4 5 5 6 7 7 7 7 7 8 8 7 8 8 8 8 9 10 8 6 7 6 7 9 6 8 9 14 17 20 23 23 24 23 23 22
4 3 3 3 3 3 4 5 5 6 6 7 7 7 8 10 13 11 9 7 7 7 7 9 10 9 7 5 6 6 10 9 8 8 8 8 9 8 10 17 20 21 22
3 3 3 4 4 4 8 11 9 5 6 6 7 7 7 10 13 18 20 19 16 11 9 9 10 11 10 8 8 8 10 11 10 4 5 7 6 8 8 7 16 22 22
3 3 4 4 5 7 12 13 14 8 6 6 7 7 7 8 13 8 14 19 18 21 21 15 13 12 12 10 11 12 11 12 12 6 7 10 7 9 8 10 20 22 22
3 4 4 5 5 8 13 14 15 8 6 7 7 8 8 9 9 11 10 10 10 11 14 11 10 12 12 11 11 13 13 12 10 7 6 9 7 8 8 7 17 20 20
3 4 4 5 6 8 13 15 15 5 6 7 8 8 9 8 16 21 14 11 11 10 15 21 22 21 23 23 18 9 8 9 10 6 4 6 6 6 6 7 10 15 15
4 4 4 5 6 7 12 15 15 5 6 7 7 8 14 15 19 22 13 10 12 11 9 10 12 14 13 14 19 10 7 9 9 7 4 4 4 4 5 4 3 4 5
Wind_Direction
179 185 192 196 204 200 208 222 239 258 272 278 274 272 279 278 275 271 277 292 300 305 310 311 310 308 307 305 303 301 299 297 295 294 292 289 287 284 281 278 273 269 267
180 185 195 203 213 212 214 219 231 243 256 261 273 271 270 273 271 271 266 284 295 304 310 312 312 311 310 308 305 303 301 299 297 296 296 295 292 289 285 281 278 274 270
184 186 193 208 218 213 214 223 239 239 257 262 271 276 272 269 269 272 273 268 283 300 311 318 320 320 319 316 312 309 308 305 302 300 298 295 294 292 290 286 282 279 275
186 183 193 213 211 196 200 219 234 247 261 269 278 283 279 278 278 278 280 283 284 290 310 324 333 336 335 331 326 321 317 312 308 305 302 299 297 294 291 289 288 284 280
182 181 195 205 186 182 194 214 214 223 268 286 284 282 280 279 284 295 298 298 298 299 299 325 340 345 345 341 337 331 324 318 313 310 307 304 300 296 293 290 288 286 285
171 170 177 185 166 158 175 185 220 232 258 289 298 295 287 289 298 296 296 306 311 316 323 320 333 337 342 339 336 331 324 318 314 310 307 303 299 296 293 291 289 287 284
155 155 154 151 147 158 174 164 155 300 329 349 344 324 314 314 316 295 300 313 323 332 334 332 327 321 322 329 330 325 321 316 311 307 304 301 298 295 292 289 287 285 283
139 144 149 148 146 136 116 112 120 103 15 30 58 352 336 336 334 321 324 314 316 326 326 326 319 309 303 301 308 318 316 312 308 304 301 299 297 294 292 289 287 284 282
125 127 133 130 127 128 134 137 140 143 173 344 181 164 290 293 306 309 309 306 302 305 308 307 298 293 292 291 295 305 308 308 306 303 300 298 296 293 291 289 287 285 283
111 114 119 121 122 122 128 143 144 151 154 225 289 237 221 221 272 304 302 294 295 293 291 292 292 290 285 284 287 301 305 304 303 302 301 298 296 294 291 290 288 286 285
100 113 120 121 122 123 133 140 139 159 171 189 207 224 250 248 230 255 286 295 296 267 268 274 278 280 283 282 283 291 301 303 303 301 300 298 296 294 292 290 289 288 287
103 108 116 118 124 129 142 159 169 184 197 208 214 208 209 225 227 234 267 286 290 276 269 264 267 274 280 284 289 302 305 304 302 300 298 297 295 293 291 290 288 286 285
148 148 128 130 133 147 161 163 175 213 214 219 226 226 224 229 227 232 260 282 287 288 277 268 258 273 285 288 298 305 304 302 300 298 297 295 293 291 290 289 287 285 284
164 158 146 144 148 154 157 161 188 228 221 232 244 243 240 243 233 227 235 272 296 291 272 269 274 267 281 295 297 303 298 299 299 298 295 293 291 290 287 286 285 284 284
154 152 149 146 149 157 173 179 214 247 245 246 251 254 250 250 243 239 235 227 250 290 292 262 269 275 288 293 293 294 282 293 298 297 296 294 291 289 287 285 284 283 282
152 150 152 156 166 187 204 210 240 249 251 257 249 254 256 255 253 246 240 238 230 253 278 263 260 274 285 291 295 295 289 297 300 299 296 294 291 289 288 286 285 283 281
159 163 169 175 194 218 224 226 246 254 256 264 263 256 260 258 255 252 245 242 243 243 271 280 259 267 269 276 285 285 284 283 286 293 295 294 293 290 288 286 285 283 282
167 172 176 190 215 227 232 237 254 257 255 261 264 262 265 266 259 256 251 250 252 246 262 284 284 271 265 268 273 277 284 285 282 291 294 294 293 291 290 289 287 285 283
171 179 187 206 227 239 246 247 247 253 253 254 258 259 263 263 265 261 256 257 258 261 257 273 284 278 271 270 275 274 274 277 280 286 291 292 291 290 290 290 289 287 286
179 196 208 222 234 245 251 255 254 255 256 257 255 253 256 255 259 263 263 258 259 262 264 271 281 283 274 266 267 275 281 270 274 279 281 283 285 288 290 291 291 290 290
193 202 217 239 247 250 248 249 249 250 253 259 260 256 255 265 270 275 276 265 260 264 269 275 281 285 281 276 272 271 284 284 273 265 269 271 276 274 278 283 287 287 285
204 210 227 242 256 260 277 285 283 260 255 257 264 265 266 275 282 289 293 295 291 285 283 280 284 284 286 281 280 280 285 287 287 246 255 270 265 269 268 261 273 278 279
207 227 241 246 256 269 284 290 291 286 262 258 261 267 274 274 291 280 285 289 288 286 285 284 284 283 284 283 282 282 278 278 281 277 276 280 267 269 267 271 278 281 282
214 231 244 251 260 272 287 293 295 290 268 261 259 259 265 269 272 282 270 267 262 267 274 277 268 270 272 274 269 275 282 283 277 267 256 275 275 271 275 270 279 282 283
226 236 245 252 260 274 288 294 295 276 266 265 262 261 267 265 279 292 291 282 279 273 280 283 282 285 288 294 295 292 289 290 290 281 245 255 272 277 275 270 275 283 290
231 243 255 254 257 267 283 291 294 272 268 269 265 261 276 283 289 294 290 283 286 285 278 281 283 288 288 288 292 286 280 282 286 286 249 244 269 287 286 265 267 282 293